This is the latest recevied weather packets stored in our database for station/object N4JTC. If no packets are shown the sender has not sent any weather packets the latest 10 day(s).
| Time | Temp. | Humidity | Pressure | Rain* | Wind** | Luminosity | Snow |
|---|---|---|---|---|---|---|---|
| 1777820402 | 22.78° C | 44% | 1022 hPa | 0 mm | - | 811 W/m² | - |
| 1777820103 | 22.22° C | 43% | 1021.9 hPa | 0 mm | - | 803 W/m² | - |
| 1777819803 | 22.22° C | 43% | 1022 hPa | 0 mm | - | 784 W/m² | - |
| 1777819503 | 22.22° C | 44% | 1021.9 hPa | 0 mm | - | 751 W/m² | - |
| 1777819202 | 22.22° C | 46% | 1021.6 hPa | 0 mm | - | 730 W/m² | - |
| 1777818903 | 21.67° C | 47% | 1021.7 hPa | 0 mm | - | 704 W/m² | - |
| 1777818303 | 21.11° C | 49% | 1021.5 hPa | 0 mm | - | 651 W/m² | - |
| 1777817703 | 20.56° C | 51% | 1021.5 hPa | 0 mm | - | 609 W/m² | - |
| 1777817403 | 20.56° C | 49% | 1021.3 hPa | 0 mm | - | 580 W/m² | - |
| 1777817103 | 20° C | 51% | 1021 hPa | 0 mm | - | 552 W/m² | - |
| 1777816803 | 20° C | 51% | 1021.1 hPa | 0 mm | - | 514 W/m² | - |
| 1777816503 | 19.44° C | 52% | 1021.1 hPa | 0 mm | - | 480 W/m² | - |
| 1777816203 | 19.44° C | 55% | 1020.9 hPa | 0 mm | - | 445 W/m² | - |
| 1777815903 | 19.44° C | 55% | 1020.8 hPa | 0 mm | - | 421 W/m² | - |
| 1777815603 | 19.44° C | 55% | 1020.9 hPa | 0 mm | - | 384 W/m² | - |
| 1777815302 | 18.89° C | 56% | 1021 hPa | 0 mm | - | 356 W/m² | - |
| 1777814703 | 18.33° C | 59% | 1020.8 hPa | 0 mm | - | 330 W/m² | - |
| 1777814402 | 17.78° C | 59% | 1020.7 hPa | 0 mm | - | 315 W/m² | - |
| 1777814103 | 17.78° C | 60% | 1020.9 hPa | 0 mm | - | 288 W/m² | - |
| 1777813803 | 17.78° C | 60% | 1020.8 hPa | 0 mm | - | 271 W/m² | - |
| 1777813503 | 17.22° C | 62% | 1021 hPa | 0 mm | - | 264 W/m² | - |
| 1777812903 | 16.67° C | 63% | 1021.2 hPa | 0 mm | - | 233 W/m² | - |
| 1777812602 | 16.67° C | 64% | 1021.2 hPa | 0 mm | - | 195 W/m² | - |
| 1777812303 | 16.11° C | 65% | 1020.9 hPa | 0 mm | - | 188 W/m² | - |
| 1777812003 | 16.11° C | 64% | 1020.9 hPa | 0 mm | - | 175 W/m² | - |
* Rain latest hour (hover to see other rain measurements)
** Current wind speed in m/s (hover to see current wind gust speed)